Theta_e
312 313 313 314 314 315 315 315 314 315 316 317 318 318 319 320 321 323 334 332 332 336 347 354 356 357 358 358 354 347 366 351 349 351 350 346 344 343 343 345 345 345 347 343 338
314 314 314 314 314 314 315 315 315 315 315 317 318 318 319 320 321 329 331 326 325 336 354 356 355 356 357 357 353 358 351 351 349 349 350 347 344 344 344 344 344 345 344 340 339
316 316 316 316 315 315 315 315 315 315 315 315 317 318 319 319 326 343 330 329 327 339 353 352 350 354 355 350 349 349 352 351 349 348 348 348 345 344 344 345 344 344 341 338 338
317 317 316 315 315 316 315 315 316 316 315 315 316 318 319 320 337 337 327 331 331 347 351 348 349 351 349 345 346 350 347 349 349 349 349 349 346 345 345 343 343 343 340 341 341
317 317 315 314 315 315 315 315 316 316 316 315 315 317 319 328 330 329 324 330 334 351 349 347 347 346 346 343 346 343 346 347 348 349 349 350 348 347 346 344 343 343 342 342 342
317 316 314 314 314 315 315 315 316 316 316 315 315 317 320 327 331 325 331 331 351 349 347 345 347 345 345 342 343 343 346 345 346 349 349 351 350 349 347 345 343 344 343 343 343
318 316 314 313 314 314 315 316 316 316 316 316 315 316 326 326 332 344 348 350 346 345 345 344 342 342 342 343 341 344 345 345 345 348 350 350 353 352 348 345 344 344 344 343 343
318 317 316 316 317 317 317 318 317 317 316 316 316 316 327 324 329 341 345 347 346 346 346 342 342 340 341 341 343 343 343 344 345 349 349 349 359 350 350 347 345 345 345 344 344
318 318 319 322 323 324 323 319 317 316 316 316 319 325 325 320 329 337 342 342 343 343 345 342 337 338 338 342 345 345 343 340 342 344 348 350 352 349 348 349 347 346 346 345 345
318 319 322 323 324 324 326 327 327 320 320 316 325 325 324 324 325 333 340 334 337 336 336 338 338 339 339 341 344 343 342 341 339 337 340 344 346 350 348 349 349 348 347 346 346
317 319 323 324 323 323 324 325 328 332 328 330 322 323 324 325 324 331 336 332 328 333 336 335 336 336 337 338 337 338 340 341 341 335 339 342 344 346 350 348 349 350 348 347 346
317 319 323 324 324 324 327 330 328 328 329 325 325 324 325 325 326 325 332 332 331 331 332 332 331 334 335 334 334 336 339 340 342 335 334 340 342 342 348 348 347 349 349 348 346
317 318 321 323 325 324 328 329 327 328 328 324 324 326 326 326 327 326 327 329 329 329 330 329 330 330 330 331 332 334 336 338 339 337 335 338 341 343 343 346 346 348 348 348 348
319 318 320 321 326 328 330 328 328 328 329 327 326 326 326 328 328 326 326 327 328 328 329 328 329 328 328 328 330 330 333 334 336 338 337 337 344 344 346 347 347 346 348 348 348
320 318 321 324 328 329 329 329 328 328 333 329 328 325 326 327 327 326 326 326 328 329 328 328 328 328 328 329 329 329 330 331 333 338 338 337 339 342 341 339 340 344 346 347 348
321 319 320 322 324 328 328 328 328 334 331 330 328 328 327 327 327 326 326 326 327 328 328 328 328 328 328 329 330 330 330 330 333 335 336 336 338 337 338 336 336 336 339 345 348
321 321 322 324 331 328 329 331 337 334 331 331 330 329 330 328 328 328 327 327 328 328 329 329 328 329 328 330 333 331 331 331 332 333 333 334 335 334 334 334 338 338 337 341 347
322 323 325 327 328 330 331 336 335 331 332 331 330 329 329 328 329 328 328 329 330 329 328 330 329 329 331 331 332 331 331 331 332 332 332 333 334 334 333 337 339 340 342 344 346
325 327 332 332 328 330 334 339 334 332 331 331 331 332 330 329 330 329 330 332 331 331 332 331 332 331 330 331 331 332 333 332 330 330 330 330 331 332 335 337 342 344 347 347 347
329 334 333 329 330 331 335 328 334 331 331 331 332 332 333 332 331 331 332 332 332 331 331 334 332 333 333 332 331 331 332 329 331 331 332 330 331 331 338 337 342 348 351 351 349
328 333 331 328 329 332 336 335 332 330 329 331 332 332 332 333 332 333 334 333 332 332 331 332 332 333 333 334 332 331 329 332 332 330 330 330 336 337 340 344 344 349 351 353 351
331 332 330 329 333 333 334 333 329 332 331 332 332 332 332 333 333 333 333 333 331 332 332 334 332 331 332 332 330 329 328 329 331 332 333 334 335 340 340 343 347 351 352 353 352
333 332 330 327 332 334 332 331 330 331 332 332 332 331 332 331 332 332 332 330 330 332 333 334 333 331 332 332 331 331 331 331 330 331 331 332 334 336 340 345 348 349 351 353 337
330 334 331 330 330 331 332 332 332 329 330 330 332 332 332 332 332 332 332 330 329 329 326 329 329 330 332 333 333 333 331 330 330 330 331 332 335 337 336 339 345 346 350 353 352
329 332 330 334 333 331 330 331 331 331 329 330 332 332 333 334 333 332 331 331 330 326 328 330 330 330 331 332 331 330 330 329 329 330 330 331 332 333 333 335 343 345 348 352 355
330 329 331 329 330 331 325 330 331 330 330 331 331 331 330 331 332 333 331 331 331 331 330 330 331 330 330 330 329 329 328 327 327 327 328 328 329 331 330 337 342 346 345 347 349
327 329 328 330 330 331 332 332 332 330 330 329 330 330 330 330 329 329 328 328 329 329 329 329 330 331 332 332 331 331 329 328 327 327 327 327 328 329 331 333 338 345 347 348 348
Wind_Speed
11 11 10 10 10 11 11 12 13 13 12 11 12 11 11 11 14 11 5 3 3 2 6 9 7 6 6 10 15 17 4 12 15 14 8 7 9 7 7 13 5 7 14 29 30
12 12 11 11 11 11 11 11 13 13 12 12 12 10 10 11 13 11 13 10 4 4 14 9 6 8 15 10 8 7 12 12 13 8 11 8 9 11 9 12 9 19 26 33 30
12 12 12 11 11 11 11 11 11 12 12 12 11 10 8 9 12 3 5 5 4 5 7 4 4 14 20 4 5 13 11 6 8 9 9 9 12 9 11 9 17 26 33 34 30
12 12 12 11 11 10 11 10 10 10 10 11 10 8 6 5 5 4 4 5 8 10 6 5 7 19 12 11 7 3 6 7 5 4 5 7 11 9 7 12 18 26 35 34 31
13 12 11 10 9 8 9 9 8 7 8 9 9 7 5 9 6 5 5 8 11 6 9 8 13 14 11 9 2 10 8 2 5 3 4 7 8 7 5 14 19 25 31 33 31
14 13 11 9 7 6 6 6 6 5 6 6 7 7 6 15 2 6 1 9 7 7 7 7 9 10 13 8 9 8 3 3 4 4 6 11 11 9 10 15 20 26 29 30 30
13 12 9 7 5 4 3 3 3 4 4 4 5 7 8 5 3 4 7 10 6 8 7 6 7 10 14 12 6 6 6 11 6 4 6 11 7 12 16 16 19 25 26 27 27
12 11 8 6 5 4 2 1 1 1 1 2 5 6 6 4 5 7 9 9 9 8 8 8 10 14 15 13 19 12 7 8 8 7 3 10 15 6 16 21 22 23 26 27 26
11 9 6 6 6 5 2 1 2 2 2 4 5 5 6 3 8 9 11 8 9 8 9 11 11 15 15 16 6 24 4 6 12 9 6 8 7 11 13 22 23 24 24 26 26
10 6 3 5 7 5 5 5 4 5 5 6 5 7 7 8 10 11 11 6 8 9 12 13 15 15 14 14 5 11 8 8 8 5 7 8 8 13 14 21 20 23 24 25 26
10 4 0 4 6 5 2 1 2 3 9 9 14 2 7 6 8 10 12 9 8 10 14 18 12 15 19 11 11 11 12 12 8 4 5 6 6 9 17 16 20 24 26 27 27
9 2 2 2 3 4 5 4 6 3 4 4 6 5 4 5 10 12 13 12 13 14 18 13 13 16 18 9 12 15 16 14 13 6 10 6 7 9 17 14 16 18 23 24 24
6 2 4 1 2 3 2 4 4 4 4 7 8 6 7 9 9 16 16 17 10 14 15 12 17 8 9 13 15 15 15 18 10 11 18 8 12 8 9 12 12 16 19 23 25
3 3 4 3 2 1 1 2 7 4 5 10 9 6 7 6 5 6 14 12 9 11 9 9 10 7 12 13 11 15 14 14 8 13 6 1 2 9 12 11 8 13 18 22 25
2 3 5 6 3 3 3 5 6 3 1 2 7 6 5 10 9 12 9 10 14 8 6 2 3 7 10 6 9 14 13 11 14 13 16 10 5 13 15 6 9 13 16 20 26
1 3 4 3 4 5 6 8 4 8 5 7 7 10 12 11 5 7 11 11 8 8 10 14 1 6 11 8 9 11 10 12 14 13 13 14 10 7 13 3 4 2 5 18 25
3 4 4 5 1 7 7 6 8 1 4 6 10 9 9 8 7 13 12 14 12 12 15 9 10 10 4 16 8 10 14 10 10 11 11 14 7 6 13 7 9 6 6 10 23
2 2 1 2 5 7 6 10 5 2 7 4 3 5 6 5 8 7 6 9 7 7 10 6 11 9 5 5 13 14 13 10 10 9 11 9 5 7 5 13 10 8 7 10 21
2 0 2 4 6 5 10 10 5 4 3 4 8 10 8 7 7 7 5 10 8 11 11 2 4 5 2 6 7 11 11 14 11 13 13 8 11 4 14 12 11 9 8 4 17
3 6 3 4 5 6 11 4 2 4 7 8 12 4 4 8 8 10 4 6 1 3 10 4 11 8 8 6 17 9 12 12 8 10 8 9 7 2 11 8 12 11 10 7 8
4 8 3 4 5 12 10 6 1 2 6 6 4 5 5 2 10 3 4 6 2 1 8 12 12 7 10 7 12 8 11 10 12 9 10 11 8 11 9 10 10 12 11 6 1
7 8 1 3 11 4 4 2 3 2 2 2 7 8 6 3 7 4 6 6 4 7 11 10 10 13 14 4 2 9 12 10 9 12 10 9 4 10 8 10 10 12 11 7 8
9 10 2 5 9 6 4 5 5 5 2 2 1 3 3 8 4 7 2 8 5 7 10 13 8 12 10 13 12 5 2 7 12 11 11 10 2 5 8 9 9 10 10 10 6
6 4 6 7 9 11 3 8 7 4 6 7 8 4 6 7 4 5 7 6 4 7 7 8 14 16 12 16 12 8 14 11 13 9 13 11 2 11 7 5 4 7 8 9 7
3 3 5 4 3 7 6 5 9 6 9 5 5 9 9 8 6 7 4 7 9 9 7 8 14 15 15 12 13 15 16 15 15 15 15 18 17 10 10 7 6 4 3 7 8
8 7 8 15 9 10 5 12 11 7 6 11 8 11 5 10 8 9 7 8 9 7 8 11 13 12 16 15 17 20 19 19 18 18 18 17 17 15 16 6 3 4 2 4 9
10 6 7 6 11 9 9 5 5 3 9 10 8 7 10 5 3 11 14 16 15 13 13 13 13 12 16 14 16 12 18 16 13 14 15 16 15 9 7 7 9 9 5 3 5
Wind_Direction
318 310 303 295 288 283 278 269 260 258 261 265 276 289 300 303 307 309 327 231 280 201 149 142 179 202 230 258 219 235 225 52 48 59 115 155 116 87 100 124 137 203 143 154 157
322 314 305 295 287 279 274 270 263 256 254 260 265 280 295 302 297 273 253 281 269 176 145 160 181 207 227 238 270 177 51 46 6 75 123 165 128 130 140 131 127 103 122 147 157
327 319 309 299 289 280 275 270 267 261 257 256 262 271 287 303 292 171 237 262 187 133 170 212 273 245 270 130 30 6 19 22 66 41 126 158 124 153 142 140 136 136 144 155 161
333 325 317 307 294 282 275 272 268 263 255 252 255 262 274 289 268 325 320 201 158 148 205 244 266 267 278 51 64 267 46 356 29 96 140 158 139 167 190 131 147 150 157 161 171
337 331 324 313 300 287 274 269 268 265 257 246 245 248 250 246 265 288 318 174 148 146 218 257 289 334 1 356 2 11 36 315 103 161 170 169 162 158 146 139 153 155 162 168 171
341 339 333 323 313 298 281 272 272 266 257 240 231 229 232 251 359 271 196 157 168 192 236 263 314 322 286 318 7 332 307 37 72 166 170 192 174 177 172 160 160 164 170 173 177
345 347 347 338 333 321 293 276 272 263 261 230 207 215 250 262 155 209 176 169 195 210 269 277 306 298 328 312 347 289 271 148 120 134 203 231 189 183 165 173 172 176 181 183 185
350 355 1 6 15 8 351 329 278 240 238 190 180 191 265 217 203 189 192 208 219 224 244 284 297 294 268 295 255 244 229 122 117 153 154 252 159 164 181 179 179 187 186 191 194
351 357 18 32 20 3 6 63 101 114 120 135 137 193 212 231 192 190 183 198 215 231 245 266 289 274 290 258 45 322 5 42 136 167 148 234 121 163 179 181 187 189 193 196 198
350 357 37 33 24 44 80 86 105 113 113 131 195 219 218 206 177 181 186 193 209 238 238 240 248 257 248 248 97 285 347 341 22 106 198 223 260 160 183 181 198 191 198 198 202
341 345 62 36 42 59 85 345 185 182 220 305 167 279 142 148 167 185 194 206 227 233 246 216 260 255 254 359 349 312 296 302 320 49 302 252 264 183 173 200 195 198 199 199 204
332 295 203 41 50 56 46 292 22 345 174 184 187 250 190 202 178 186 188 208 206 239 234 255 249 260 284 344 293 287 285 275 259 18 295 295 273 263 151 192 203 202 193 201 199
328 229 196 214 322 297 282 357 342 317 220 152 169 189 169 198 213 171 194 211 234 242 256 257 288 6 314 282 279 265 264 288 355 314 270 287 237 121 122 163 185 201 202 199 198
333 197 181 173 72 304 285 282 329 291 200 142 167 135 166 228 154 142 200 232 227 271 249 266 288 320 279 269 271 272 288 288 303 281 293 171 80 50 267 140 170 184 207 200 198
352 183 183 196 215 284 277 316 312 275 249 123 107 138 185 253 122 183 195 226 270 239 223 266 289 245 248 296 344 297 327 292 281 275 270 220 211 147 219 106 144 178 193 216 196
55 157 180 231 263 260 298 301 312 238 87 130 139 181 187 210 155 142 193 230 294 271 238 273 241 267 290 316 263 291 276 253 242 254 265 268 248 207 130 96 38 90 210 205 207
111 144 170 177 4 284 294 283 252 294 195 149 154 191 219 159 136 166 188 200 226 226 220 190 220 215 233 271 209 231 248 250 217 216 235 245 171 285 81 55 25 354 296 228 205
120 141 166 259 270 293 287 255 281 340 65 125 218 196 205 170 137 169 194 221 188 283 276 300 176 199 146 330 339 309 327 309 321 297 322 11 226 100 70 59 11 0 312 282 192
167 358 277 285 293 290 273 262 54 11 342 298 192 214 145 192 288 228 262 22 23 333 323 315 187 120 258 329 313 331 274 349 311 296 282 284 298 232 84 48 29 20 353 303 184
224 243 215 293 283 279 263 337 58 331 294 246 278 289 264 148 230 226 164 87 64 321 298 13 288 162 144 239 250 254 329 293 262 251 258 279 250 263 74 54 35 21 19 11 191
243 244 170 307 278 252 262 68 47 109 316 297 304 248 303 304 279 268 53 103 283 340 304 311 292 278 208 279 351 310 287 252 254 301 307 286 68 54 73 53 39 30 38 61 12
272 254 134 304 255 260 314 33 23 288 200 283 292 322 300 8 283 274 308 56 4 310 296 341 315 295 293 20 335 281 288 299 276 278 254 267 69 70 40 65 44 53 52 85 91
293 302 288 243 266 229 104 225 278 250 224 259 265 269 30 292 289 254 256 82 329 290 4 334 302 309 291 178 154 243 285 315 302 282 283 302 102 93 84 70 50 52 56 77 81
292 271 176 232 276 285 284 244 204 220 284 289 312 277 257 241 198 289 253 138 296 314 26 298 274 277 299 321 335 305 298 302 297 280 295 282 12 157 105 61 44 53 66 73 107
303 46 332 287 166 299 288 301 258 216 223 250 242 264 288 287 244 246 256 281 209 156 264 266 279 288 293 299 293 290 283 278 275 281 288 299 309 326 354 34 25 354 72 101 104
338 338 336 280 269 263 222 254 260 255 260 266 234 279 283 275 306 323 328 289 286 258 255 260 271 276 277 278 279 272 270 273 267 269 266 270 276 287 301 129 240 247 218 144 130
348 312 295 276 267 252 270 258 272 341 256 275 312 294 244 320 4 303 294 286 282 281 279 284 289 291 281 296 291 284 261 263 264 266 268 267 267 277 290 302 226 208 227 187 152